CZ-4B DEB, 43660

Orbit data source: Space-Track

CZ-4B DEB, 43660 is space debris in SSO originally from a launch on Wed, 24 Oct 2018 UTC launched from the Taiyaun Space Center, China (TSC). Debris objects in space refer to the collection of defunct objects orbiting the Earth. Examples of debris include non-operational satellites, rocket bodies, and fragments generated from explosions, collisions, or faulty payload assembly.

Loading next visibility...
Identifier
43660, 2018-081D
Orbit
SSO
Last TLE update
17 hours ago
Origin
Manufacturer
SAST
Mission
Spacecraft
Bus & Motor
Unknown
Mass
Unknown
Launch date (UTC)
2018-10-24 (7 years ago)
Launch vehicle
Unknown
Launch site
Taiyaun Space Center, China (TSC)
Object type
Payload
Rocket body
Debris
Shape & HBR
Unknown
Radar Cross Section
Small (<0.1 m²)

Expand to show TLE details & history

TLE from 17 hours ago
0 CZ-4B DEB
1 43660U 18081D   25186.02099291  .00000131  00000-0  14065-3 0  9995
2 43660  99.1446 215.6801 0012645 214.6169 145.4167 13.90477302339665
Epoch: 2025-07-05T00:30Z
TLE epoch observation values (Epoch: 2025-07-05T00:30:13.787Z)
Latitude
-0.00008°
Longitude
-75.14236°
Altitude
937.429 km
Speed
7.379 km/s
True Right ascension
14h 22m 43s
True Declination
0° 00' 00"
Sunlit
Object was in daylight at epoch
Visualization orbit readout
Latitude
-32.51327°
Longitude
-68.58294°
Altitude
942.94 km
Speed
7.377 km/s
Apparent Right ascension
16h 00m 47s
Apparent Declination
-37° 32' 43"
Sunlit
Object is in full shadow
Visualization observer readout
Local Sidereal Time
05:32:20
Azimuth
89.755° E
Elevation
-72.04°
Doppler factor
1
Orbital elements
Apogee altitude
933.412 km
Perigee altitude
914.944 km
Semi-major axis
7,302.315 km
Eccentricity
0.00126
Inclination
99.1446°
RAAN
215.6801°
Arg. of periapsis
214.6169°
True anomaly
Unknown
Mean anomaly
145.4167°
Eccentric anomaly
Unknown
Mean motion
3.47818 °/min
Orbital period
103.5 mins
BSTAR
0.00014065
Loading maneuver chart data...
Loading SW <> Apogee altitude chart data...
Loading historical data...
Loading historical data...
Loading historical data...
Loading historical data...
Loading historical data...
Loading historical data...
Loading historical data...

CZ-4B DEB Visibility forecast

Observer location: undefined°, undefined°

Span
Click to sort rows by Start time (UTC) header in descending order
Start Az.
Max El. time (UTC)
Max El. Az.
Max El.
End time (UTC)
End Az.
8 mins2025-07-06 00:49:56.278Z113.148° SE2025-07-06 00:53:56.278Z61.866° ENE24.491°2025-07-06 00:57:56.278Z13.358° NNE
9 mins2025-07-06 02:31:56.278Z197.24° SSW2025-07-06 02:35:56.278Z266.739° W35.218°2025-07-06 02:40:56.278Z331.458° NNW
4 mins2025-07-06 13:25:56.278Z77.541° E2025-07-06 13:26:56.278Z88.795° E13.783°2025-07-06 13:29:56.278Z120.47° SE
9 mins2025-07-06 15:05:56.278Z9.008° NNE2025-07-06 15:09:56.278Z276.485° WNW44.244°2025-07-06 15:14:56.278Z202.24° SSW
|